[[{"header":{"parameterUnit":"m.s-1","parameterCategory":1,"la1":30.2991,"la2":30.254,"lo1":-89.0895,"lo2":-89.0444,"dy":0.0017,"dx":0.0017,"nx":28,"ny":28,"refTime":"2023-07-24T03:00:00:Z","depth":0,"parameterNumber":2,"parameterNumberName":"U-component_of_WINDS"},"data":[0,0,0,0,0,0,0,0,0,0,0,0,0,0,0,0,0,0,0,0,0,0,0,0,0,0,0,0,0,0,0,0,0,0,0,0,0,0,0,0,0,0,0,0,0,0,0,0,0,0,0,0,0,0,0,0,0,0,2.2248,2.2248,0,2.2299,2.23,2.2301,2.2278,2.2277,2.2276,2.2275,2.2325,2.2328,2.233,0,0,0,0,0,0,0,0,0,0,0,0,0,2.2126,2.2128,2.2248,2.2248,2.2249,2.2299,2.23,2.2301,2.2278,2.2277,2.2275,2.2274,2.2325,2.2328,2.2331,0,0,0,0,0,0,0,0,0,0,0,0,0,2.2178,2.2129,2.2248,2.2244,2.2244,2.2299,2.23,2.2301,2.2279,2.2277,2.2275,2.2273,2.2324,2.2327,2.2331,2.2392,0,0,2.2343,2.2344,0,0,0,0,0,0,0,0,2.2175,2.2183,2.2244,2.2244,2.2245,2.2281,2.2276,2.2331,2.2279,2.2266,2.2275,2.2272,2.2312,2.2316,2.233,2.2394,2.2396,2.2343,2.2345,2.2347,2.2348,0,0,0,0,0,0,0,2.2172,2.2181,2.2268,2.2245,2.2245,2.2239,2.2244,2.2286,2.2299,2.2267,2.2265,2.2272,2.2312,2.2327,2.2331,2.2397,2.2343,2.2346,2.2348,2.235,2.251,2.2511,0,0,0,0,0,0,2.2169,2.2178,2.2266,2.227,2.2205,2.2242,2.2248,2.2271,2.2298,2.23,2.2273,2.227,2.2321,2.2327,2.2333,2.2403,2.2347,2.235,2.2352,2.2508,2.251,2.2512,0,0,0,0,0,0,2.2166,2.2177,2.2264,2.2223,2.2234,2.2246,2.2272,2.2273,2.2288,2.2303,2.2305,2.2286,2.232,2.2328,2.2377,2.2404,2.2352,2.2355,2.2505,2.2508,2.2511,2.2545,0,0,0,0,0,0,2.2163,2.2176,2.22,2.2224,2.2236,2.2308,2.2274,2.2275,2.2295,2.2291,2.2316,2.2318,2.2319,2.2371,2.238,2.2409,2.2358,2.2503,2.2507,2.251,2.2542,2.2549,2.2555,0,0,0,0,0,2.2159,2.2208,2.2202,2.2213,2.2267,2.231,2.2317,2.2318,2.2297,2.232,2.233,2.2317,2.24,2.2376,2.2387,2.2416,2.2501,2.2505,2.251,2.2539,2.2548,2.2555,0,0,0,0,0,0,2.2188,2.2212,2.2204,2.2264,2.2285,2.2306,2.2336,2.2328,2.2355,2.2351,2.235,2.2355,2.2405,2.2416,2.2389,2.2475,2.2447,2.2454,2.2466,2.2474,2.2481,2.2476,2.2362,0,0,0,0,0,2.2201,2.2235,2.2254,2.2304,2.2315,2.2324,2.2343,2.2341,2.2363,2.2372,2.2385,2.2406,2.2436,2.2456,2.2485,2.2544,2.2547,2.2569,2.2576,2.2581,2.2587,2.2615,2.2624,2.2527,2.2527,2.2527,0,0,2.2229,2.2246,2.2268,2.2311,2.2327,2.236,2.2332,2.2369,2.2393,2.2377,2.2424,2.2434,2.2457,2.251,2.2534,2.252,2.2614,2.2587,2.2591,2.2593,2.262,2.2629,2.2637,2.253,2.2529,2.2529,0,0,2.2297,2.2315,2.2357,2.2373,2.2398,2.2403,2.2413,2.2435,2.2441,2.2488,2.2476,2.2504,2.2558,2.2573,2.2588,2.2659,2.2647,2.2669,2.2703,2.2731,2.2738,2.2745,2.2767,2.2776,2.2674,2.2674,2.2674,0,2.2328,2.2379,2.2379,2.2417,2.2434,2.2422,2.2463,2.2479,2.2512,2.2524,2.2508,2.2573,2.2588,2.2642,2.2659,2.2673,2.2682,2.2665,2.2738,2.2744,2.275,2.2771,2.278,2.2676,2.2676,2.2676,2.2676,0,2.2414,2.245,2.2481,2.2512,2.2533,2.2573,2.2577,2.2599,2.2595,2.2601,2.2647,2.2664,2.2695,2.2708,2.2705,2.2762,2.2752,2.2738,2.2709,2.2762,2.2781,2.279,2.2679,2.2679,2.2678,2.2677,0,0,2.2502,2.2532,2.2543,2.2555,2.2581,2.2607,2.2645,2.2675,2.2692,2.2715,2.2744,2.2789,2.2774,2.2791,2.279,2.2814,2.2865,2.2796,2.2797,2.2806,2.2924,2.2933,2.2943,2.2858,2.286,2.2861,2.2921,0,2.2569,2.2635,2.2635,2.2696,2.2726,2.2713,2.2745,2.2764,2.277,2.2796,2.2802,2.2832,2.2813,2.2823,2.2847,2.2854,2.2888,2.285,2.2883,2.2884,2.2875,2.2954,2.2964,2.302,2.2929,2.2931,2.2932,0,2.2656,2.268,2.2744,2.2761,2.2774,2.2803,2.2829,2.2855,2.2874,2.2877,2.2895,2.2889,2.2925,2.2897,2.2945,2.2919,2.2932,2.2938,2.294,2.2941,2.291,2.2954,2.3038,2.3045,2.2944,2.2943,2.2942,0,2.2709,2.2759,2.2801,2.2813,2.2836,2.2856,2.2866,2.2884,2.2901,2.2924,2.2934,2.2961,2.2975,2.2995,2.2995,2.2975,2.3042,2.3016,2.3043,2.3043,2.3056,2.3055,2.3141,2.307,2.307,2.307,2.3069,0,2.2783,2.2821,2.2825,2.2852,2.2893,2.2892,2.2933,2.2942,2.2957,2.2983,2.2974,2.2999,2.2999,2.3024,2.3025,2.3062,2.307,2.3071,2.307,2.307,2.307,2.3078,2.3073,2.3072,2.3071,2.3071,2.307,0,2.2849,2.2854,2.2899,2.2917,2.2922,2.2951,2.2965,2.2989,2.2994,2.3027,2.3035,2.3042,2.3071,2.3074,2.3107,2.3107,2.3152,2.3148,2.3145,2.3143,2.317,2.3166,2.3262,2.3273,2.3197,2.3198,2.3199,0,2.2894,2.2923,2.2943,2.2959,2.297,2.2998,2.3015,2.3015,2.3033,2.3055,2.3076,2.3103,2.3125,2.317,2.3178,2.3202,2.3197,2.3229,2.3201,2.3199,2.3194,2.3191,2.3193,2.3234,2.3235,2.3235,2.3236,0,2.2972,2.2973,2.2997,2.3022,2.3042,2.3062,2.3081,2.3095,2.3097,2.3117,2.3145,2.3162,2.3195,2.3221,2.3245,2.3254,2.3244,2.3245,2.3252,2.3251,2.3247,2.3246,2.3157,2.3242,2.3242,2.3241,2.3241,2.3241,2.3027,2.3051,2.3068,2.3095,2.3108,2.3125,2.3147,2.3154,2.3178,2.3205,2.3203,2.3234,2.325,2.328,2.3291,2.3314,2.3303,2.3315,2.3317,2.3319,2.332,2.3245,2.3319,2.3319,2.3319,2.3318,2.3318,0,2.3102,2.3112,2.3137,2.3162,2.3183,2.3173,2.3192,2.3209,2.3236,2.3252,2.3273,2.3304,2.3329,2.3338,2.3362,2.3378,2.3374,2.3384,2.3382,2.3383,2.333,2.332,2.3387,2.3387,2.3387,2.3387,2.3387,2.3387,2.3144,2.3182,2.3184,2.3228,2.3237,2.3267,2.3278,2.3293,2.3305,2.334,2.336,2.3366,2.3378,2.3403,2.3424,2.3426,2.3434,2.3445,2.3445,2.3394,2.3387,2.3381,2.3371,2.3447,2.3447,2.3495,2.3496,2.3496]},{"header":{"parameterUnit":"m.s-1","parameterCategory":1,"la1":30.2991,"la2":30.254,"lo1":-89.0895,"lo2":-89.0444,"dy":0.0017,"dx":0.0017,"nx":28,"ny":28,"refTime":"2023-07-24T03:00:00:Z","depth":0,"parameterNumber":3,"parameterNumberName":"V-component_of_WINDS"},"data":[0,0,0,0,0,0,0,0,0,0,0,0,0,0,0,0,0,0,0,0,0,0,0,0,0,0,0,0,0,0,0,0,0,0,0,0,0,0,0,0,0,0,0,0,0,0,0,0,0,0,0,0,0,0,0,0,0,0,0.6379,0.6379,0,0.6388,0.6388,0.6388,0.6371,0.637,0.637,0.6369,0.6378,0.6379,0.6379,0,0,0,0,0,0,0,0,0,0,0,0,0,0.6347,0.6348,0.6379,0.6379,0.6379,0.6388,0.6388,0.6388,0.6371,0.637,0.637,0.6369,0.6378,0.6378,0.6379,0,0,0,0,0,0,0,0,0,0,0,0,0,0.6359,0.6348,0.6379,0.6372,0.6371,0.6388,0.6388,0.6388,0.6371,0.637,0.6369,0.6369,0.6377,0.6378,0.6379,0.6403,0,0,0.6383,0.6383,0,0,0,0,0,0,0,0,0.6358,0.636,0.6373,0.6373,0.6372,0.6377,0.6379,0.6393,0.6371,0.6371,0.6369,0.6368,0.6378,0.6379,0.6383,0.6403,0.6404,0.6383,0.6384,0.6384,0.6384,0,0,0,0,0,0,0,0.6357,0.636,0.6383,0.6373,0.6373,0.6368,0.6369,0.6382,0.6379,0.6371,0.637,0.6371,0.6378,0.6382,0.6383,0.6404,0.6383,0.6384,0.6385,0.6385,0.6441,0.6442,0,0,0,0,0,0,0.6358,0.6359,0.6382,0.6383,0.6363,0.6369,0.637,0.6376,0.6379,0.6379,0.6372,0.637,0.638,0.6381,0.6383,0.6409,0.6384,0.6385,0.6386,0.644,0.6441,0.6442,0,0,0,0,0,0,0.6357,0.636,0.6382,0.6371,0.6373,0.637,0.6378,0.6377,0.6381,0.638,0.6379,0.6376,0.638,0.6381,0.6397,0.6409,0.6386,0.6387,0.6439,0.6441,0.6442,0.6463,0,0,0,0,0,0,0.6356,0.636,0.6369,0.6371,0.6374,0.6397,0.6379,0.6378,0.6383,0.6381,0.6384,0.6383,0.6379,0.6396,0.6399,0.641,0.6387,0.6438,0.644,0.6441,0.6461,0.6464,0.6467,0,0,0,0,0,0.6355,0.6375,0.637,0.6373,0.6386,0.6398,0.6399,0.6394,0.6384,0.6393,0.6392,0.6383,0.6407,0.6398,0.6401,0.6413,0.6438,0.644,0.6441,0.6459,0.6464,0.6467,0,0,0,0,0,0,0.6376,0.6376,0.6369,0.6391,0.6394,0.6395,0.6406,0.6399,0.6406,0.6404,0.6396,0.6397,0.6414,0.6415,0.6404,0.6434,0.6421,0.6423,0.6433,0.6437,0.6441,0.644,0.6388,0,0,0,0,0,0.6383,0.6393,0.6392,0.6411,0.6413,0.6409,0.6415,0.641,0.6413,0.6415,0.6415,0.6418,0.6426,0.6432,0.6439,0.646,0.646,0.647,0.6473,0.6476,0.6478,0.6487,0.6492,0.6448,0.6448,0.6448,0,0,0.6398,0.6399,0.6406,0.6415,0.6417,0.6427,0.6411,0.6423,0.643,0.6416,0.6431,0.6431,0.6434,0.6452,0.646,0.6454,0.649,0.6478,0.6481,0.6481,0.649,0.6494,0.6498,0.645,0.6449,0.6449,0,0,0.643,0.6432,0.6447,0.6449,0.6452,0.6449,0.6453,0.6454,0.6453,0.6468,0.6457,0.6465,0.648,0.6482,0.6485,0.6514,0.6506,0.6517,0.6534,0.6543,0.6546,0.6549,0.6559,0.6562,0.6519,0.6519,0.6519,0,0.6448,0.6463,0.6456,0.6468,0.6472,0.6459,0.6473,0.6476,0.6481,0.6484,0.6476,0.6492,0.6493,0.6511,0.6518,0.6521,0.6524,0.6517,0.6546,0.6549,0.6552,0.6561,0.6565,0.652,0.652,0.652,0.652,0,0.6484,0.6495,0.6506,0.6511,0.6516,0.6529,0.6523,0.6529,0.6523,0.652,0.6534,0.6535,0.6541,0.6545,0.654,0.6561,0.6557,0.6548,0.6534,0.6557,0.6566,0.6569,0.6522,0.6521,0.6521,0.6521,0,0,0.6532,0.653,0.6535,0.6536,0.6537,0.6544,0.6556,0.6562,0.6566,0.657,0.6579,0.659,0.6581,0.6584,0.6579,0.6587,0.6608,0.6576,0.6576,0.6581,0.663,0.6636,0.664,0.6602,0.6603,0.6603,0.6629,0,0.6563,0.6583,0.6576,0.6596,0.6604,0.6591,0.6601,0.6602,0.6599,0.6606,0.6602,0.661,0.6598,0.66,0.6607,0.6604,0.6618,0.6602,0.661,0.661,0.6609,0.6645,0.6652,0.6676,0.6632,0.6633,0.6633,0,0.6602,0.6606,0.6627,0.6624,0.6628,0.6637,0.664,0.6646,0.6647,0.6644,0.6646,0.6638,0.6648,0.6634,0.6647,0.6636,0.6639,0.6637,0.6638,0.6639,0.6623,0.6646,0.6684,0.6688,0.6638,0.6638,0.6638,0,0.6633,0.6644,0.6657,0.6658,0.6656,0.6662,0.6662,0.6661,0.6664,0.6667,0.6668,0.6673,0.6675,0.6677,0.667,0.6661,0.6683,0.6669,0.6681,0.6681,0.6687,0.6686,0.6725,0.6689,0.6689,0.6689,0.6688,0,0.6668,0.6682,0.667,0.6679,0.6692,0.6683,0.6697,0.6694,0.6693,0.67,0.6689,0.6695,0.6686,0.6691,0.6685,0.6695,0.6697,0.6694,0.6692,0.6695,0.6695,0.6697,0.6695,0.6689,0.6689,0.6689,0.6689,0,0.6706,0.6699,0.6713,0.6708,0.6708,0.6718,0.6714,0.6721,0.6716,0.6725,0.6726,0.6719,0.6724,0.6717,0.6722,0.6718,0.6732,0.6728,0.6732,0.6731,0.6742,0.6741,0.6783,0.6788,0.6749,0.6749,0.6749,0,0.6729,0.6738,0.6734,0.6738,0.6738,0.6744,0.6746,0.6737,0.674,0.6739,0.6746,0.675,0.6753,0.6761,0.6756,0.6759,0.6755,0.6769,0.6755,0.6757,0.6754,0.6753,0.6753,0.6772,0.6773,0.6773,0.6773,0,0.677,0.6765,0.6769,0.6772,0.6775,0.6777,0.6777,0.6781,0.677,0.6774,0.6779,0.6781,0.6785,0.6788,0.679,0.6788,0.6779,0.6778,0.678,0.6783,0.6785,0.6783,0.6739,0.6777,0.6777,0.6776,0.6776,0.6776,0.68,0.6807,0.6805,0.6809,0.6808,0.6809,0.6814,0.681,0.6813,0.6816,0.6809,0.6815,0.6813,0.6813,0.6812,0.6816,0.681,0.6814,0.6815,0.6816,0.6817,0.6784,0.6816,0.6816,0.6816,0.6816,0.6816,0,0.6839,0.6837,0.6841,0.6841,0.6844,0.6835,0.6834,0.6837,0.6842,0.6841,0.6843,0.6848,0.6851,0.6845,0.6846,0.685,0.6846,0.6851,0.6851,0.685,0.6824,0.6821,0.6854,0.6854,0.6854,0.6854,0.6854,0.6854,0.686,0.6871,0.6866,0.6875,0.6872,0.6878,0.6878,0.6878,0.6876,0.6882,0.6884,0.688,0.6876,0.6877,0.6878,0.6876,0.6877,0.6884,0.688,0.6856,0.6852,0.6849,0.6846,0.6884,0.6884,0.6906,0.6906,0.6907]}]]